Location: Calvatone
(45.1167°N, 10.4333°E)
Time: 10:23:27
(UTC+00:00)

ISS - Pass Details

Date: 28 January 2023
Orbit: 413 x 421 km, 51.6° (Epoch: 29 March)

Event Time Altitude Azimuth Distance (km) Brightness Sun altitude
Rises 19:05:29 0° 299° (WNW) 2,436 1.1 -29.2°
Reaches altitude 10° 19:07:37 10° 299° (WNW) 1,564 -0.1 -29.6°
Enters shadow 19:08:25 16° 300° (WNW) 1,242 -0.7 -29.8°
